Regional Weather Roundup
Issued by NWS Newport/Morehead, NC

Current Version | Previous Version | Graphics & Text | Print | Product List | Glossary On
Versions: 1 2 3 4 5 6 7 8 9 10 11 12 13 14 15 16 17 18 19 20 21 22 23 24 25 26 27 28 29 30 31 32 33 34 35 36 37 38 39 40 41 42 43 44 45 46 47 48 49 50
000 ASUS42 KMHX 201613 RWRMHX WEATHER ROUNDUP FOR EASTERN NORTH CAROLINA NATIONAL WEATHER SERVICE NEWPORT/MOREHEAD CITY NC 1100 AM EST FRI JAN 20 2017 NOTE: "FAIR" INDICATES FEW OR NO CLOUDS BELOW 12,000 FEET WITH NO SIGNIFICANT WEATHER AND/OR OBSTRUCTIONS TO VISIBILITY NCZ015>017-031-032-045>047-102-103-201700- NORTH COAST CITY SKY/WX TMP DP RH WIND PRES REMARKS EDENTON CLOUDY 55 46 71 CALM 29.94F ELIZABETH CITY CLOUDY 51 44 77 E10 29.95F KITTY HAWK NOT AVBL MANTEO PTSUNNY 55 45 71 SE9 29.97F $$ NCZ045>047-081-094-103-104-201700- CENTRAL COAST CITY SKY/WX TMP DP RH WIND PRES REMARKS FRISCO CLOUDY 64 51 62 E9 29.95F $$ NCZ095-097-098-100-101-201700- SOUTHERN COAST CITY SKY/WX TMP DP RH WIND PRES REMARKS BEAUFORT MOSUNNY 67 59 75 E5 29.93F CEDAR ISLAND NOT AVBL JACKSONVILLE CLOUDY 61 54 77 CALM 29.92F PINEY ISLAND CLOUDY N/A N/A N/A E9 29.93F WILMINGTON CLOUDY 67 59 75 SE3 29.92F $$ NCZ011>013-027>030-043-044-078>080-089-090>093-098-201700- COASTAL PLAIN CITY SKY/WX TMP DP RH WIND PRES REMARKS AHOSKIE N/A 48 44 85 SE3 29.94F CLINTON CLOUDY 57 53 86 CALM 29.92F ELIZABETHTOWN CLOUDY 60 55 81 SE3 29.91F GOLDSBORO CLOUDY 53 53 99 E6 29.90F GREENVILLE LGT RAIN 52 50 93 SE3 29.95F HAVELOCK CLOUDY 64 55 72 SE6 29.94F KENANSVILLE CLOUDY 54 50 87 SE5 29.93S KINSTON CLOUDY 54 48 82 E5 29.94F NEW BERN CLOUDY 56 49 77 E5 29.94F RICHLANDS CLOUDY 57 52 83 SE5 29.93F ROCKY MOUNT CLOUDY 50 49 96 VRB3 29.92F WASHINGTON CLOUDY 54 45 72 SE6 N/A WHITEVILLE CLOUDY 62 55 77 CALM 29.92S $$ AMZ130-135-150-152-154-156-158-170-250-252-270-ANZ085-086-088-633-658-670-201700- MARINE OBSERVATIONS STATION/POSITION TIME TEMP WIND PRES WAVE SWELL AIR SEA DIR/SP/G HT/PER HT/PER (UTC) (F) (DEG/KT/KT) (MB) (FT/S) (FT/S) CHESAPEAKE LIGHT NOT AVBL 64 E VA BEACH 1550 53 57 90/ 2/ 4 1015.0 6/14 5/14 DUCK 1542 48 45 120/ 6/ 7 1014.2 2 E DUCK 1530 45 N/A 4/11 3/11 OREGON INLET 1542 51 49 80/ 5/ 7 1014.7 13E OREGON INLT NOT AVBL HATTERAS CG 1548 54 80/ 7/ 9 1013.6 DIAMOND BUOY 1550 68 76 170/ 12/ 16 1014.1 5/12 5/12 CAPE LOOKOUT 1500 66 130/ 8/ 8 1013.4 BEAUFORT LAB 1548 50 100/ 5/ 10 1012.3 30 SE NEW RVR IN 1508 65 65 150/ 6/ 8 1013.5 30 SE NEW RVR IN 1543 65 N/A 4/11 3/11 27 SE WRIGHTSVLE 1508 72 71 180/ 10/ 14 1012.7 5 SE WRIGHTSVLE NOT AVBL 225 S CAPE HAT 1550 69 71 150/ 12/ 16 1015.5 6/11 5/11 41 SE CHARLESTON NOT AVBL $$

USA.gov is the U.S. government's official web portal to all federal, state and local government web resources and services.